Voltar ao catálogo

USA 40 R/B DEB

LostHEO
NORAD 23377·DEBRIS·🇺🇸 United States

Lançado Aug 8, 1989 de Cape Canaveral Space Force Station

Loading…

Próximas Passagens (próximas 24 horas)

TLE

ObsoletoSource: Space-Track

Época: Dec 23, 2023, 10:45 UTC

1 23377U 89061AZ  23357.44834859  .00015285  00000-0  86939-2 0  9999
2 23377  57.0162  24.3365 2922446 198.1630 148.8361  9.09024114157403

Acompanhe USA 40 R/B DEB em tempo real com AllMySat

Download on the App Store